| time (UTC) | temp F | wind direction | speed MPH | gust MPH | rain 1hr in | rain 24hr in | rain mn in | humidity % | barometer mb |
| 20260503210641 | 57 | 155 | 0.0 | 0.0 | 0.00 | 0.01 | 0.01 | 74 | 1013.1 |
| 20260503210141 | 57 | 32 | 0.0 | 0.0 | 0.00 | 0.01 | 0.01 | 73 | 1013.0 |
| 20260503204640 | 56 | 13 | 0.0 | 0.0 | 0.00 | 0.01 | 0.01 | 76 | 1013.1 |
| 20260503204139 | 56 | 49 | 0.0 | 0.0 | 0.00 | 0.01 | 0.01 | 75 | 1013.2 |
| 20260503203639 | 56 | 29 | 0.0 | 0.0 | 0.00 | 0.01 | 0.01 | 73 | 1013.2 |
| 20260503203137 | 57 | 349 | 0.0 | 0.0 | 0.00 | 0.01 | 0.01 | 73 | 1013.2 |
| 20260503201637 | 57 | 291 | 0.0 | 0.0 | 0.00 | 0.01 | 0.01 | 73 | 1013.3 |
| 20260503201137 | 57 | 43 | 0.0 | 1.0 | 0.00 | 0.01 | 0.01 | 73 | 1013.3 |
| 20260503200634 | 58 | 354 | 0.0 | 1.0 | 0.00 | 0.01 | 0.01 | 74 | 1013.4 |
| 20260503200135 | 58 | 288 | 0.0 | 0.0 | 0.00 | 0.01 | 0.01 | 75 | 1013.2 |
| 20260503195633 | 58 | 43 | 0.0 | 0.0 | 0.00 | 0.01 | 0.01 | 74 | 1013.2 |
| 20260503195133 | 58 | 30 | 0.0 | 0.0 | 0.00 | 0.01 | 0.01 | 74 | 1013.2 |
| 20260503194633 | 58 | 77 | 0.0 | 0.0 | 0.00 | 0.01 | 0.01 | 74 | 1013.4 |
| 20260503194132 | 57 | 271 | 0.0 | 0.0 | 0.00 | 0.01 | 0.01 | 73 | 1013.4 |
| 20260503192629 | 57 | 24 | 0.0 | 0.0 | 0.00 | 0.01 | 0.01 | 73 | 1013.3 |
| 20260503192126 | 57 | 69 | 0.0 | 0.0 | 0.00 | 0.01 | 0.01 | 74 | 1013.4 |
| 20260503191627 | 58 | 53 | 0.0 | 1.0 | 0.00 | 0.01 | 0.01 | 74 | 1013.4 |
| 20260503191126 | 58 | 90 | 0.0 | 1.0 | 0.00 | 0.01 | 0.01 | 71 | 1013.4 |
| 20260503190625 | 58 | 67 | 0.0 | 0.0 | 0.00 | 0.01 | 0.01 | 75 | 1013.4 |
| 20260503190124 | 58 | 4 | 0.0 | 0.0 | 0.00 | 0.01 | 0.01 | 74 | 1013.4 |
| 20260503185622 | 57 | 48 | 0.0 | 1.0 | 0.00 | 0.01 | 0.01 | 77 | 1013.4 |
| 20260503185123 | 57 | 217 | 0.0 | 1.0 | 0.00 | 0.01 | 0.01 | 76 | 1013.4 |
| 20260503184623 | 57 | 68 | 0.0 | 1.0 | 0.00 | 0.01 | 0.01 | 76 | 1013.3 |
| 20260503184123 | 57 | 356 | 0.0 | 1.0 | 0.00 | 0.01 | 0.01 | 76 | 1013.3 |
| 20260503183622 | 56 | 123 | 0.0 | 1.0 | 0.00 | 0.01 | 0.01 | 76 | 1013.4 |
| 20260503182622 | 56 | 30 | 0.0 | 1.0 | 0.00 | 0.01 | 0.01 | 77 | 1013.3 |
| 20260503181622 | 55 | 37 | 0.0 | 0.0 | 0.00 | 0.01 | 0.01 | 78 | 1013.3 |
| 20260503181123 | 55 | 30 | 0.0 | 0.0 | 0.00 | 0.01 | 0.01 | 78 | 1013.3 |
| 20260503180620 | 55 | 51 | 0.0 | 1.0 | 0.00 | 0.01 | 0.01 | 79 | 1013.3 |
| 20260503175620 | 55 | 74 | 0.0 | 0.0 | 0.00 | 0.01 | 0.01 | 81 | 1013.3 |
| 20260503175120 | 55 | 20 | 0.0 | 1.0 | 0.00 | 0.01 | 0.01 | 80 | 1013.3 |
| 20260503174620 | 55 | 313 | 0.0 | 1.0 | 0.00 | 0.01 | 0.01 | 80 | 1013.4 |
| 20260503174121 | 55 | 27 | 0.0 | 1.0 | 0.00 | 0.01 | 0.01 | 80 | 1013.4 |
| 20260503173620 | 55 | 103 | 0.0 | 0.0 | 0.00 | 0.01 | 0.01 | 83 | 1013.3 |
| 20260503173121 | 54 | 197 | 0.0 | 0.0 | 0.01 | 0.01 | 0.01 | 84 | 1013.2 |
| 20260503172620 | 54 | 56 | 0.0 | 0.0 | 0.01 | 0.01 | 0.01 | 83 | 1013.2 |
| 20260503172120 | 53 | 49 | 0.0 | 0.0 | 0.01 | 0.01 | 0.01 | 85 | 1013.2 |
| 20260503171620 | 53 | 63 | 0.0 | 0.0 | 0.01 | 0.01 | 0.01 | 86 | 1013.2 |
| 20260503171120 | 53 | 20 | 0.0 | 0.0 | 0.01 | 0.01 | 0.01 | 87 | 1013.2 |
| 20260503170621 | 53 | 38 | 0.0 | 0.0 | 0.01 | 0.01 | 0.01 | 90 | 1013.4 |
| 20260503170120 | 52 | 51 | 0.0 | 0.0 | 0.01 | 0.01 | 0.01 | 91 | 1013.3 |
| 20260503150114 | 51 | 57 | 0.0 | 0.0 | 0.00 | 0.00 | 0.00 | 92 | 1012.6 |
| 20260503140110 | 50 | 189 | 0.0 | 0.0 | 0.00 | 0.00 | 0.00 | 92 | 1011.9 |
| 20260503130610 | 50 | 189 | 0.0 | 0.0 | 0.00 | 0.00 | 0.00 | 92 | 1011.2 |
| 20260503130108 | 50 | 189 | 0.0 | 0.0 | 0.00 | 0.00 | 0.00 | 92 | 1011.2 |
| 20260503110545 | 50 | 189 | 0.0 | 0.0 | 0.00 | 0.00 | 0.00 | 92 | 1011.5 |
| 20260503081537 | 50 | 37 | 0.0 | 0.0 | 0.00 | 0.00 | 0.00 | 90 | 1012.1 |
| 20260503081035 | 50 | 38 | 0.0 | 0.0 | 0.00 | 0.00 | 0.00 | 90 | 1012.1 |
| 20260503080535 | 50 | 18 | 0.0 | 0.0 | 0.00 | 0.00 | 0.00 | 90 | 1012.1 |
| 20260503072536 | 50 | 56 | 0.0 | 0.0 | 0.00 | 0.00 | 0.00 | 90 | 1012.2 |
| 20260503072035 | 51 | 56 | 0.0 | 0.0 | 0.00 | 0.00 | 0.00 | 90 | 1012.2 |
| 20260503071535 | 51 | 56 | 0.0 | 0.0 | 0.00 | 0.00 | 0.00 | 90 | 1012.1 |
| 20260503071035 | 51 | 56 | 0.0 | 0.0 | 0.00 | 0.00 | 0.00 | 90 | 1012.2 |
| 20260503070535 | 51 | 44 | 0.0 | 0.0 | 0.00 | 0.00 | 0.00 | 90 | 1012.2 |
| 20260503054034 | 51 | 56 | 0.0 | 0.0 | 0.00 | 0.00 | 0.00 | 89 | 1012.6 |
| 20260503053535 | 51 | 56 | 0.0 | 0.0 | 0.00 | 0.00 | 0.00 | 89 | 1012.5 |
| 20260503053035 | 51 | 49 | 0.0 | 0.0 | 0.00 | 0.00 | 0.00 | 89 | 1012.6 |
| 20260503052534 | 51 | 49 | 0.0 | 0.0 | 0.00 | 0.00 | 0.00 | 89 | 1012.6 |
| 20260503052035 | 51 | 49 | 0.0 | 0.0 | 0.00 | 0.00 | 0.00 | 89 | 1012.7 |
| 20260503051534 | 51 | 49 | 0.0 | 0.0 | 0.00 | 0.00 | 0.00 | 89 | 1012.7 |
| 20260503051034 | 51 | 237 | 0.0 | 0.0 | 0.00 | 0.00 | 0.00 | 88 | 1012.5 |
| 20260503050034 | 51 | 244 | 0.0 | 0.0 | 0.00 | 0.00 | 0.00 | 88 | 1012.7 |
| 20260503045534 | 51 | 266 | 0.0 | 0.0 | 0.00 | 0.00 | 0.00 | 88 | 1012.4 |
| 20260503045032 | 51 | 56 | 0.0 | 0.0 | 0.00 | 0.00 | 0.00 | 88 | 1012.5 |
| 20260503044532 | 51 | 56 | 0.0 | 0.0 | 0.00 | 0.00 | 0.00 | 88 | 1012.5 |
| 20260503043031 | 51 | 103 | 0.0 | 0.0 | 0.00 | 0.00 | 0.00 | 87 | 1012.3 |
| 20260503042031 | 52 | 77 | 0.0 | 0.0 | 0.00 | 0.00 | 0.00 | 87 | 1012.2 |
| 20260503041028 | 52 | 119 | 0.0 | 0.0 | 0.00 | 0.00 | 0.00 | 87 | 1012.2 |
| 20260503040528 | 52 | 273 | 0.0 | 0.0 | 0.00 | 0.00 | 0.00 | 87 | 1012.1 |
| 20260503040026 | 52 | 330 | 0.0 | 1.0 | 0.00 | 0.00 | 0.00 | 87 | 1012.1 |
| 20260503034526 | 52 | 257 | 0.0 | 2.0 | 0.00 | 0.00 | 0.00 | 86 | 1011.9 |
| 20260503033025 | 53 | 218 | 0.0 | 0.0 | 0.00 | 0.00 | 0.00 | 86 | 1011.8 |
| 20260503032524 | 53 | 211 | 0.0 | 0.0 | 0.00 | 0.00 | 0.00 | 86 | 1011.8 |
| 20260503032021 | 53 | 214 | 0.0 | 0.0 | 0.00 | 0.00 | 0.00 | 86 | 1011.8 |
| 20260503031021 | 53 | 187 | 0.0 | 0.0 | 0.00 | 0.00 | 0.00 | 86 | 1011.7 |
| 20260503030522 | 54 | 210 | 0.0 | 0.0 | 0.00 | 0.00 | 0.00 | 86 | 1011.7 |
| 20260503030022 | 54 | 240 | 0.0 | 1.0 | 0.00 | 0.00 | 0.00 | 86 | 1011.6 |
| 20260503025024 | 54 | 233 | 0.0 | 0.0 | 0.00 | 0.00 | 0.00 | 85 | 1011.5 |
| 20260503024521 | 54 | 205 | 0.0 | 0.0 | 0.00 | 0.00 | 0.00 | 85 | 1011.5 |
| 20260503024022 | 54 | 194 | 0.0 | 0.0 | 0.00 | 0.00 | 0.00 | 85 | 1011.5 |
| 20260503023522 | 54 | 218 | 0.0 | 0.0 | 0.00 | 0.00 | 0.00 | 85 | 1011.4 |
| 20260503023020 | 55 | 167 | 0.0 | 0.0 | 0.00 | 0.00 | 0.00 | 85 | 1011.4 |
| 20260503022520 | 55 | 199 | 0.0 | 0.0 | 0.00 | 0.00 | 0.00 | 84 | 1011.4 |
| 20260503022020 | 55 | 229 | 0.0 | 1.0 | 0.00 | 0.00 | 0.00 | 84 | 1011.4 |
| 20260503021520 | 55 | 199 | 0.0 | 1.0 | 0.00 | 0.00 | 0.00 | 84 | 1011.4 |
| 20260503021020 | 55 | 218 | 0.0 | 1.0 | 0.00 | 0.00 | 0.00 | 84 | 1011.4 |
| 20260503020519 | 56 | 218 | 0.0 | 1.0 | 0.00 | 0.00 | 0.00 | 83 | 1011.4 |
| 20260503020020 | 56 | 176 | 0.0 | 2.0 | 0.00 | 0.00 | 0.00 | 83 | 1011.5 |
| 20260503015520 | 56 | 219 | 0.0 | 2.0 | 0.00 | 0.00 | 0.00 | 83 | 1011.4 |
| 20260503015020 | 56 | 141 | 0.0 | 1.0 | 0.00 | 0.00 | 0.00 | 83 | 1011.4 |
| 20260503014519 | 56 | 220 | 0.0 | 1.0 | 0.00 | 0.00 | 0.00 | 82 | 1011.6 |
| 20260503014018 | 57 | 212 | 0.0 | 0.0 | 0.00 | 0.00 | 0.00 | 82 | 1011.4 |
| 20260503013517 | 57 | 191 | 0.0 | 0.0 | 0.00 | 0.00 | 0.00 | 82 | 1011.5 |
| 20260503013018 | 57 | 193 | 0.0 | 4.0 | 0.00 | 0.00 | 0.00 | 82 | 1011.5 |
| 20260503012518 | 57 | 221 | 0.0 | 4.0 | 0.00 | 0.00 | 0.00 | 81 | 1011.4 |
| 20260503012016 | 58 | 141 | 0.0 | 1.0 | 0.00 | 0.00 | 0.00 | 81 | 1011.5 |
| 20260503011516 | 58 | 233 | 0.0 | 1.0 | 0.00 | 0.00 | 0.00 | 81 | 1011.5 |
| 20260503011016 | 58 | 163 | 0.0 | 1.0 | 0.00 | 0.00 | 0.00 | 80 | 1011.5 |
| 20260503010515 | 58 | 124 | 0.0 | 1.0 | 0.00 | 0.00 | 0.00 | 80 | 1011.5 |
| 20260503005514 | 59 | 158 | 0.0 | 1.0 | 0.00 | 0.00 | 0.00 | 79 | 1011.5 |
| 20260503005011 | 59 | 236 | 0.0 | 1.0 | 0.00 | 0.00 | 0.00 | 80 | 1011.5 |
| 20260503004012 | 59 | 47 | 0.0 | 0.0 | 0.00 | 0.00 | 0.00 | 79 | 1011.4 |
| 20260503003511 | 60 | 117 | 0.0 | 0.0 | 0.00 | 0.00 | 0.00 | 79 | 1011.5 |
| 20260503003009 | 60 | 233 | 0.0 | 0.0 | 0.00 | 0.00 | 0.00 | 79 | 1011.5 |
| 20260503002510 | 60 | 67 | 0.0 | 0.0 | 0.00 | 0.00 | 0.00 | 79 | 1011.5 |
| 20260503002010 | 60 | 294 | 0.0 | 2.0 | 0.00 | 0.00 | 0.00 | 79 | 1011.7 |
| 20260503001507 | 60 | 320 | 0.0 | 2.0 | 0.00 | 0.00 | 0.00 | 78 | 1011.6 |
| 20260503001008 | 61 | 217 | 0.0 | 0.0 | 0.00 | 0.00 | 0.00 | 77 | 1011.6 |
| 20260503000507 | 61 | 102 | 0.0 | 0.0 | 0.00 | 0.00 | 0.00 | 77 | 1011.7 |
| 20260503000008 | 61 | 108 | 0.0 | 0.0 | 0.00 | 0.00 | 0.00 | 77 | 1011.6 |
| 20260502235507 | 62 | 100 | 0.0 | 1.0 | 0.00 | 0.00 | 0.00 | 76 | 1011.6 |
| 20260502235008 | 62 | 136 | 0.0 | 1.0 | 0.00 | 0.00 | 0.00 | 76 | 1011.6 |
| 20260502234508 | 62 | 125 | 0.0 | 0.0 | 0.00 | 0.00 | 0.00 | 76 | 1011.6 |
| 20260502234006 | 62 | 56 | 0.0 | 0.0 | 0.00 | 0.00 | 0.00 | 76 | 1011.7 |
| 20260502233001 | 62 | 55 | 0.0 | 1.0 | 0.00 | 0.00 | 0.00 | 76 | 1011.8 |
| 20260502232459 | 63 | 103 | 0.0 | 0.0 | 0.00 | 0.00 | 0.00 | 76 | 1011.8 |
| 20260502232000 | 63 | 211 | 0.0 | 0.0 | 0.00 | 0.00 | 0.00 | 76 | 1011.9 |
| 20260502231001 | 63 | 92 | 0.0 | 0.0 | 0.00 | 0.00 | 0.00 | 75 | 1011.9 |
| 20260502230500 | 64 | 108 | 0.0 | 2.0 | 0.00 | 0.00 | 0.00 | 74 | 1011.9 |
| 20260502225959 | 64 | 52 | 0.0 | 2.0 | 0.00 | 0.00 | 0.00 | 74 | 1012.0 |
| 20260502225500 | 64 | 136 | 0.0 | 0.0 | 0.00 | 0.00 | 0.00 | 74 | 1012.1 |
| 20260502224959 | 64 | 101 | 0.0 | 0.0 | 0.00 | 0.00 | 0.00 | 74 | 1012.1 |
| 20260502224459 | 64 | 224 | 0.0 | 0.0 | 0.00 | 0.00 | 0.00 | 74 | 1012.2 |
| 20260502224000 | 64 | 233 | 0.0 | 0.0 | 0.00 | 0.00 | 0.00 | 74 | 1012.3 |
| 20260502222959 | 64 | 122 | 0.0 | 0.0 | 0.00 | 0.00 | 0.00 | 73 | 1012.3 |
| 20260502222500 | 65 | 68 | 0.0 | 0.0 | 0.00 | 0.00 | 0.00 | 73 | 1012.5 |
| 20260502221959 | 64 | 209 | 0.0 | 0.0 | 0.00 | 0.00 | 0.00 | 74 | 1012.5 |
| 20260502220959 | 64 | 84 | 0.0 | 0.0 | 0.00 | 0.00 | 0.00 | 74 | 1012.7 |
| 20260502220459 | 64 | 213 | 0.0 | 0.0 | 0.00 | 0.00 | 0.00 | 75 | 1012.6 |
| 20260502220000 | 64 | 126 | 0.0 | 0.0 | 0.00 | 0.00 | 0.00 | 75 | 1012.7 |
| 20260502215500 | 64 | 23 | 0.0 | 0.0 | 0.00 | 0.00 | 0.00 | 76 | 1012.7 |
| 20260502214959 | 63 | 123 | 0.0 | 0.0 | 0.00 | 0.00 | 0.00 | 75 | 1012.8 |
| 20260502213959 | 64 | 62 | 0.0 | 0.0 | 0.00 | 0.00 | 0.00 | 76 | 1012.7 |
| 20260502213459 | 64 | 59 | 0.0 | 1.0 | 0.00 | 0.00 | 0.00 | 74 | 1012.7 |
| 20260502213000 | 64 | 244 | 0.0 | 1.0 | 0.00 | 0.00 | 0.00 | 75 | 1012.7 |
| 20260502212459 | 63 | 35 | 0.0 | 0.0 | 0.00 | 0.00 | 0.00 | 76 | 1012.8 |
| 20260502211959 | 64 | 257 | 0.0 | 0.0 | 0.00 | 0.00 | 0.00 | 75 | 1012.7 |
| 20260502211500 | 64 | 79 | 0.0 | 0.0 | 0.00 | 0.00 | 0.00 | 74 | 1012.8 |
| 20260502211000 | 65 | 25 | 0.0 | 1.0 | 0.00 | 0.00 | 0.00 | 75 | 1012.9 |